SCP
0 0 0 0 0 0 0 0 0 0 0 0 0 0 0 0 0 0 0 0 0 0 0 0 0 0 0 0 0 0 0 0 0 0 0 0 0 0 0 0 0 0 0
0 0 0 0 0 0 0 0 0 0 0 0 0 0 0 0 0 0 0 0 0 0 0 0 0 0 0 0 0 0 0 0 0 0 0 0 0 0 0 0 0 0 0
0 0 0 0 0 0 0 0 0 0 0 0 0 0 0 0 0 0 0 0 0 0 0 0 0 0 0 0 0 0 0 0 0 0 0 0 0 0 0 0 0 0 0
0 0 0 0 0 0 0 0 0 0 0 0 0 0 0 0 0 0 0 0 0 0 0 0 0 0 0 0 0 0 0 0 0 0 0 0 0 0 0 0 0 0 0
0 0 0 0 0 0 0 0 0 0 0 0 0 0 0 0 0 0 0 0 0 0 0 0 0 0 0 0 0 0 0 0 0 0 0 0 0 0 0 0 0 0 0
0 0 0 0 0 0 0 0 0 0 0 0 0 0 0 0 0 0 0 0 0 0 0 0 0 0 0 0 0 0 0 0 0 0 0 0 0 0 0 0 0 0 0
0 0 0 0 0 0 0 0 0 0 0 0 0 0 0 0 0 0 0 0 0 0 0 0 0 0 0 0 0 0 0 0 0 0 0 0 0 0 0 0 0 0 0
0 0 0 0 0 0 0 0 0 0 0 0 0 0 0 0 0 0 0 0 0 0 0 0 0 0 0 0 0 0 0 0 0 0 0 0 0 0 0 0 0 0 0
0 0 0 0 0 0 0 0 0 0 0 0 0 0 0 0 0 0 0 0 0 0 0 0 0 0 0 0 0 0 0 0 0 0 0 0 0 0 0 0 0 0 0
0 0 0 0 0 0 0 0 0 0 0 0 0 0 0 0 0 0 0 0 0 0 0 0 0 0 0 0 0 0 0 0 0 0 0 0 0 0 0 0 0 0 0
0 0 0 0 0 0 0 0 0 0 0 0 0 0 0 0 0 0 0 0 0 0 0 0 0 0 0 0 0 0 0 0 0 0 0 0 0 0 0 0 0 0 0
0 0 0 0 0 0 0 0 0 0 0 0 0 0 0 0 0 0 0 0 0 0 0 0 0 0 0 0 0 0 0 0 0 0 0 0 0 0 0 0 0 0 0
0 0 0 0 0 0 0 0 0 0 0 0 0 0 0 0 0 0 0 0 0 0 0 0 0 0 0 0 0 0 0 0 0 0 0 0 0 0 0 0 0 0 0
0 0 0 0 0 0 0 0 0 0 0 0 0 0 0 0 0 0 0 0 0 0 0 0 0 0 0 0 0 0 0 0 0 0 0 0 0 0 0 0 0 0 0
0 0 0 0 0 0 0 0 0 0 0 0 0 0 0 0 0 0 0 0 0 0 0 0 0 0 0 0 0 0 0 0 0 0 0 0 0 0 0 0 0 0 0
0 0 0 0 0 0 0 0 0 0 0 0 0 0 0 0 0 0 0 0 0 0 0 0 0 0 0 0 0 0 0 0 0 0 0 0 0 0 0 0 0 0 0
0 0 0 0 0 0 0 0 0 0 0 0 0 0 0 0 0 0 0 0 0 0 0 0 0 0 0 0 0 0 0 0 0 0 0 0 0 0 0 0 0 0 0
0 0 0 0 0 0 0 0 0 0 0 0 0 0 0 0 0 0 0 0 0 0 0 0 0 0 0 0 0 0 0 0 0 0 0 0 0 0 0 0 0 0 0
0 0 0 0 0 0 0 0 0 0 0 0 0 0 0 0 0 0 0 0 0 0 0 0 0 0 0 0 0 0 0 0 0 0 0 0 0 0 0 0 0 0 0
0 0 0 0 0 0 0 0 0 0 0 0 0 0 0 0 0 0 0 0 0 0 0 0 0 0 0 0 0 0 0 0 0 0 0 0 0 0 0 0 0 0 0
0 0 0 0 0 0 0 0 0 0 0 0 0 0 0 0 0 0 0 0 0 0 0 0 0 0 0 0 0 0 0 0 0 0 0 0 0 0 0 0 0 0 0
0 0 0 0 0 0 0 0 0 0 0 0 0 0 0 0 0 0 0 0 0 0 0 0 0 0 0 0 0 0 0 0 0 0 0 0 0 0 -0 0 0 0 0
0 0 0 0 0 0 0 0 0 0 0 0 0 0 0 0 0 0 0 0 0 0 0 0 0 0 0 0 0 0 0 0 0 0 0 0 0 0 0 0 0 0 0
0 0 0 0 0 0 0 0 0 0 0 0 0 0 0 0 0 0 0 0 0 0 0 0 0 0 0 0 0 0 0 0 0 0 0 0 0 0 0 0 0 0 0
0 0 0 0 0 0 0 0 0 0 0 0 0 0 0 0 0 0 0 0 0 0 0 0 0 0 0 0 0 0 0 0 0 0 0 0 0 0 0 0 0 0 0
0 0 0 0 0 0 0 0 0 0 0 0 0 0 0 0 0 0 0 0 0 0 0 0 0 0 0 0 0 0 0 0 0 0 0 0 0 0 0 0 0 0 0
Wind_Speed
0 0 0 1 1 1 1 2 2 2 2 3 3 3 3 2 2 2 1 3 3 5 7 8 8 8 9 9 9 9 9 9 9 9 9 9 9 9 10 10 10 10 10
0 0 0 0 0 1 1 2 2 2 2 2 3 2 2 2 2 2 1 2 3 3 5 7 7 8 8 8 9 9 9 8 8 9 9 9 8 8 8 8 9 9 9
0 0 1 0 1 1 2 2 2 2 2 2 3 2 2 2 2 1 1 1 1 2 3 5 6 7 7 8 8 8 8 9 8 8 8 8 8 8 8 8 8 8 8
0 0 1 1 1 1 2 2 2 2 2 2 2 1 1 1 1 1 1 1 1 1 1 3 4 5 5 6 8 9 9 9 8 8 8 8 8 7 7 7 7 7 7
0 0 0 0 0 1 2 2 2 2 2 2 2 1 1 1 1 1 1 1 1 1 1 2 3 3 3 5 7 8 9 9 8 8 7 7 7 6 6 6 6 6 6
0 0 0 0 0 1 1 2 2 2 2 2 2 2 1 1 1 1 1 1 1 1 1 1 1 1 2 3 4 6 8 8 8 8 7 7 6 5 5 5 5 5 5
0 1 1 1 0 1 2 2 2 3 2 2 2 2 1 1 1 1 1 1 1 1 1 1 1 0 0 2 3 4 6 7 8 8 7 6 6 5 4 4 4 4 4
1 0 1 1 1 1 1 2 3 2 2 2 2 3 1 0 0 1 1 1 1 1 1 1 1 1 1 1 1 3 4 6 8 8 8 7 6 5 4 4 4 3 3
1 1 1 1 1 1 2 2 3 3 3 2 2 3 3 3 1 0 1 1 1 1 1 1 1 1 1 1 1 2 3 3 6 8 8 8 7 6 5 5 4 4 3
1 1 1 1 2 2 2 2 2 2 4 3 2 1 1 2 3 1 1 1 1 2 2 1 2 2 2 2 2 3 3 3 5 7 8 8 8 7 7 6 5 4 4
1 1 1 2 2 2 2 3 2 2 3 3 3 2 1 0 1 2 2 2 1 1 2 2 2 2 2 2 2 3 4 5 6 7 7 8 8 7 8 7 6 5 5
1 1 2 2 2 2 3 3 3 3 4 3 2 2 2 3 2 2 2 2 2 2 2 2 2 2 2 2 2 3 4 5 5 6 7 7 7 7 7 7 7 6 6
2 2 2 2 2 2 3 3 3 3 4 4 4 3 3 2 2 2 2 2 1 1 1 2 2 2 2 2 2 3 4 5 5 6 7 7 6 6 6 6 6 6 6
3 3 3 2 2 2 3 3 3 3 3 4 4 4 3 2 2 2 3 3 2 1 2 3 1 3 3 2 3 4 3 5 5 5 6 6 5 5 6 6 5 5 5
2 3 3 3 2 2 2 3 3 4 4 4 4 4 3 2 2 2 2 3 4 3 4 3 2 2 2 3 3 3 3 4 5 5 5 5 5 5 5 6 6 5 5
2 3 3 3 3 2 2 2 3 3 4 4 3 4 3 2 2 2 2 2 2 3 4 3 2 2 2 2 4 4 4 5 5 6 6 6 6 6 6 6 6 6 6
3 3 3 3 3 3 2 3 3 3 4 4 4 4 4 3 3 2 2 2 2 2 3 3 2 1 2 3 2 2 3 3 4 5 6 6 6 7 7 7 7 7 7
3 3 3 3 3 3 3 4 4 4 4 5 5 5 5 3 4 3 3 3 3 3 3 4 2 2 2 3 3 3 2 3 3 4 5 6 6 6 7 8 8 8 8
3 3 3 4 3 3 3 4 4 4 4 4 5 6 5 5 4 3 4 4 3 2 2 3 3 2 2 1 2 2 2 2 2 3 4 5 6 6 6 7 7 8 8
3 3 3 4 4 3 4 4 4 4 4 4 4 5 5 6 6 5 4 4 3 3 3 3 2 2 1 1 2 3 2 2 3 2 3 3 4 5 6 6 7 7 8
4 3 3 4 3 3 3 4 4 4 5 5 4 4 5 5 6 5 4 4 4 3 3 3 3 2 2 2 3 3 3 2 3 2 2 3 3 3 4 5 6 7 7
3 3 3 4 4 4 6 7 5 4 5 5 5 4 4 5 5 6 7 6 6 5 5 4 3 4 4 4 3 3 3 2 3 2 3 3 3 4 4 4 6 7 8
4 3 3 3 4 5 7 8 8 5 4 5 5 4 4 4 5 4 5 7 7 8 8 6 5 6 5 5 5 4 4 4 4 2 2 3 3 4 3 4 7 8 8
4 3 4 4 4 5 7 8 7 4 4 5 5 5 5 4 5 4 4 5 5 5 6 5 6 6 5 5 6 6 5 3 2 2 3 3 2 3 3 3 7 8 8
4 4 4 4 4 5 7 8 7 3 3 4 4 4 4 5 7 7 5 5 5 5 5 6 7 6 6 6 5 3 3 3 3 3 2 2 1 2 2 3 4 7 7
4 4 4 4 4 5 7 7 6 3 3 3 3 4 7 6 7 8 6 5 6 5 3 3 3 3 3 4 6 6 5 4 3 3 3 3 2 1 2 2 2 3 4
Wind_Direction
53 21 43 22 49 94 116 109 109 109 112 113 111 108 98 86 74 58 37 62 91 124 135 135 136 138 138 136 131 127 122 119 115 111 105 100 97 95 92 88 85 83 82
161 151 82 29 343 154 135 131 130 131 131 126 118 116 113 109 91 78 54 52 63 100 128 136 138 139 143 143 139 137 133 127 124 117 111 106 102 100 98 93 90 87 84
217 196 160 165 295 169 131 117 108 116 126 119 118 119 117 110 110 98 76 57 53 75 105 135 143 142 145 150 148 145 139 133 128 121 116 113 108 104 100 97 95 92 88
321 222 182 203 297 180 145 131 126 124 130 130 126 121 116 118 111 117 104 88 66 63 86 107 129 141 148 154 157 153 147 140 134 127 124 122 117 112 106 101 97 94 91
347 128 196 217 257 171 153 146 139 142 142 130 128 118 113 127 152 144 137 127 111 102 103 90 94 111 133 151 161 160 155 148 144 137 132 129 125 121 117 109 101 99 95
312 120 103 57 245 171 153 148 153 138 143 141 125 107 105 146 151 162 170 153 133 117 115 100 92 84 115 135 156 162 159 156 155 149 145 142 138 132 129 119 109 105 100
305 158 146 157 146 203 180 160 151 144 141 138 121 118 63 91 150 166 165 154 138 130 113 115 118 101 179 148 153 160 166 168 169 164 162 156 155 152 149 145 129 119 112
311 196 147 182 186 207 166 162 149 154 172 162 147 151 150 194 167 161 161 168 168 153 150 158 156 157 159 168 173 165 171 181 183 178 174 170 167 169 173 172 159 149 133
281 272 174 177 192 186 191 187 171 167 178 195 168 162 164 192 187 231 186 179 175 175 186 184 183 190 185 176 187 186 176 187 194 191 185 184 184 187 188 184 176 171 165
264 278 204 176 207 199 195 200 198 189 179 188 192 198 183 157 165 186 229 207 196 196 202 207 205 203 201 195 197 188 188 195 207 200 195 197 198 199 198 198 191 190 187
291 288 242 200 214 219 206 201 204 200 190 196 189 180 148 103 152 165 202 216 228 223 214 217 210 206 201 206 205 205 203 206 213 214 208 207 206 206 206 204 203 202 199
291 298 277 233 215 233 222 208 200 208 208 205 202 183 179 177 178 172 194 210 228 236 232 219 212 208 201 208 220 213 206 209 218 222 218 216 210 209 212 211 212 210 207
283 267 276 254 235 243 246 219 208 219 217 205 204 208 203 202 177 174 175 194 227 265 234 235 222 213 209 202 219 217 209 209 217 219 217 217 215 212 213 218 220 214 214
269 267 251 256 256 242 248 229 214 224 230 220 217 207 206 214 192 183 178 170 192 232 230 231 229 216 210 206 219 204 215 215 214 214 220 218 214 210 204 205 216 220 220
281 281 259 255 255 244 240 232 223 220 226 223 219 210 211 219 212 201 189 180 177 204 227 222 212 216 216 211 212 201 212 222 218 214 217 216 210 207 200 203 213 217 215
277 278 268 259 258 248 240 230 237 228 227 228 215 210 216 221 212 212 203 201 193 198 224 226 226 229 220 223 213 201 214 219 224 220 215 211 212 208 206 208 215 217 214
286 275 270 254 250 247 241 232 241 238 232 229 218 212 221 216 209 210 204 203 208 195 222 253 250 231 204 220 219 209 212 210 222 226 222 217 216 214 211 211 215 217 218
286 283 279 260 250 249 247 235 237 245 236 227 220 215 218 214 217 214 208 212 217 211 208 238 247 223 225 219 208 209 220 219 220 230 223 222 221 217 215 213 216 219 222
289 285 286 264 252 247 251 249 241 242 236 233 223 216 214 206 217 220 216 215 217 226 219 220 234 228 231 221 207 207 216 225 231 234 227 224 223 219 218 219 221 222 221
288 284 282 273 261 254 251 246 246 244 235 236 235 223 214 212 216 215 217 217 213 216 219 218 222 215 219 226 204 199 221 223 234 235 234 233 226 220 222 224 224 221 219
293 287 286 283 277 259 251 244 239 239 231 230 236 231 224 226 228 224 225 215 207 212 213 221 220 213 211 203 216 200 216 223 240 217 227 230 222 220 221 228 227 223 218
296 289 281 282 282 278 281 276 267 245 235 230 233 232 228 228 233 239 243 237 227 219 219 221 228 222 223 219 217 206 204 209 241 212 217 239 215 226 225 220 226 223 224
297 291 282 281 277 285 295 289 280 256 237 233 230 229 232 233 231 225 241 246 242 240 231 222 227 231 220 214 209 213 214 220 236 210 204 244 221 234 229 230 226 222 224
296 295 298 293 289 295 304 298 286 264 250 243 234 229 225 224 228 226 225 234 237 237 234 227 227 232 231 215 211 216 217 218 241 215 191 235 234 241 247 235 231 225 225
304 302 301 296 295 298 304 301 288 262 257 252 244 240 236 227 238 237 229 231 239 245 244 247 251 245 236 227 211 194 195 206 234 222 194 211 229 267 260 246 231 228 229
302 300 299 296 291 290 298 300 296 267 264 266 257 246 251 251 245 235 223 221 234 240 230 245 258 252 235 217 209 201 196 203 215 225 194 187 194 194 267 258 232 224 227